Location: ??
(35.4824°N, 139.4679°E)
Time: 15:26:12
(UTC+00:00)

Intercosmos 24 - Pass Details

Date: 29 October 2020
Orbit: 498 x 2379 km, 82.6° (Epoch: 30 November)

Event Time Altitude Azimuth Distance (km) Brightness Sun altitude
Exits shadow 19:39:21 35° 309° (NW) 820 4.3 -17.3°
Maximum altitude 19:40:18 45° 266° (W) 698 3.9 -17.1°
Drops below altitude 10° 19:43:54 10° 193° (SSW) 1,814 6.4 -16.4°
Sets 19:46:15 0° 187° (S) 2,836 7.5 -15.9°
